Location: Marcé
(47.5801°N, 0.3280°W)
Time: 19:28:03
(UTC+01:00)

Tiros 1 - Pass Details

Date: 03 December 2021
Orbit: 629 x 664 km, 48.4° (Epoch: 26 January)

Event Time Altitude Azimuth Distance (km) Brightness Sun altitude
Rises 01:42:06 0° 286° (WNW) 2,963 - -62.5°
Reaches altitude 10° 01:44:34 10° 278° (W) 2,056 - -62.3°
Maximum altitude 01:48:52 35° 213° (SSW) 1,055 - -62.0°
Drops below altitude 10° 01:53:12 10° 148° (SSE) 2,066 - -61.6°
Sets 01:55:42 0° 139° (SE) 2,979 - -61.4°
